Location: Unspecified
(0.0000°N, 0.0000°E)
Time: 21:12:41
(UTC+00:00)

Hubble Space Telescope - Pass Details

Date: 01 June 2023
Orbit: 525 x 528 km, 28.5° (Epoch: 04 June)

Event Time Altitude Azimuth Distance (km) Brightness Sun altitude
Rises 18:38:01 0° 322° (NW) 2,632 5.5 -9.3°
Reaches altitude 10° 18:40:39 10° 338° (NNW) 1,746 4.1 -9.9°
Maximum altitude 18:43:47 22° 29° (NNE) 1,184 2.5 -10.6°
Enters shadow 18:46:40 11° 78° (ENE) 1,675 2.8 -11.3°
